Location: Goheenville
(40.9070°N, 79.3720°W)
Time: 13:49:37
(UTC-05:00)

Daily predictions for brighter satellites

Satellite Brightness Start Highest point End
(mag) Time Altitude Azimuth Time Altitude Azimuth Time Altitude Azimuth
Cosmos 1634 Rocket 4.0 17:10:31 10° S 17:16:42 79° E 17:22:57 10° N
USA 161 2.5 17:19:44 10° N 17:22:29 47° WNW 17:25:21 10° SSW
Cosmos 1378 Rocket 4.0 17:19:16 10° SSW 17:23:40 70° W 17:28:08 10° N
Cosmos 1092 Rocket 4.4 17:17:58 10° NNW 17:24:11 73° W 17:30:26 10° S
Cosmos 1655 Rocket 4.2 17:21:54 10° N 17:28:10 54° E 17:34:23 10° SSE
NOSS 2-3 (C) 4.2 17:28:10 10° SW 17:32:46 66° NW 17:38:10 10° NNE
Meteor 1-12 Rocket 4.3 17:29:06 10° N 17:34:45 65° ENE 17:40:27 10° SSE
CSL-04 Rocket 3.7 17:30:30 10° SSE 17:35:53 80° ENE 17:41:24 10° NNW
Meteor 1-28 Rocket 3.5 17:32:24 10° NNE 17:36:03 47° E 17:39:42 10° S
Cosmos 1898 Rocket 4.0 17:32:24 10° SSW 17:37:33 64° WNW 17:42:47 10° NNE
Aureole 1 Rocket 4.1 17:32:14 10° NNW 17:38:08 78° ENE 17:45:43 10° SSE
Cosmos 1818 4.5 17:34:25 10° SW 17:39:37 46° NW 17:44:52 10° NNE
Ariane Rocket 2.9 17:34:53 10° SSE 17:39:55 75° ENE 17:44:59 10° N
Cosmos 1743 3.0 17:36:41 10° N 17:40:24 44° E 17:44:08 10° SSE
Cosmos 2026 Rocket 4.1 17:35:01 10° N 17:41:26 86° W 17:47:45 10° S
Cosmos 1697 Rocket 4.3 17:39:20 10° SE 17:42:22 15° E 17:44:23 12° ENE
CENTAUR R/B 4.4 17:38:37 10° NNW 17:43:26 17° NNE 17:47:34 12° ENE
Cosmos 389 Rocket 2.4 17:41:07 10° N 17:44:35 59° E 17:47:59 10° SSE
CZ-2C R/B 3.9 17:42:20 10° NNE 17:46:55 53° E 17:51:32 10° S
Cosmos 2082 4.4 17:42:49 10° N 17:47:43 30° ENE 17:52:34 10° ESE
METEOR-M 4.4 17:43:03 10° SE 17:48:06 44° ENE 17:53:09 10° N
Cosmos 1125 Rocket 4.4 17:44:48 10° SSE 17:49:20 29° E 17:53:17 13° NE
SMAP 3.1 17:45:50 10° SSE 17:50:29 89° WSW 17:55:10 10° NNW
IRS-1A Rocket 4.3 17:45:23 10° SSE 17:50:52 59° ENE 17:56:19 10° N
Cosmos 1937 Rocket 3.9 17:47:05 10° SSW 17:52:14 66° WNW 17:57:23 10° NNE
AQUARIUS 4.2 17:48:33 10° SSE 17:53:03 86° W 17:57:34 10° NNW
Cosmos 2298 Rocket 4.4 17:48:55 10° SSW 17:54:12 69° WNW 17:59:31 10° NNE
Atlas Centaur 2 3.7 17:50:21 10° WSW 17:54:28 23° S 17:57:58 10° SE
Okean 1 4.3 17:53:58 10° SSW 17:57:48 47° W 18:01:39 10° N
USA 238 DEB 3.8 17:54:51 10° NNW 18:01:51 57° NE 18:08:54 10° SE
ALOS 2.9 17:57:44 10° SE 18:01:55 34° ENE 18:06:05 10° N
USA 238 3.9 17:54:56 10° NNW 18:01:57 57° NE 18:08:59 10° SE
Landsat 4 3.9 17:58:19 10° NNE 18:02:04 51° E 18:05:47 10° S
Cosmos 2227 Rocket 2.4 17:56:39 10° NNW 18:02:07 47° ENE 18:07:33 10° SE
DELTA 2 R/B (1) 3.7 17:56:56 10° WSW 18:02:29 71° S 18:06:33 19° E
Cosmos 2219 3.7 17:59:07 10° NNW 18:04:40 64° WSW 18:10:13 10° S
Cosmos 1271 Rocket 2.6 18:04:15 10° N 18:08:04 88° W 18:11:53 10° S
Cosmos 1455 Rocket 3.0 18:05:41 10° N 18:10:08 84° E 18:14:31 10° S
Cosmos 1975 4.2 18:08:37 10° NNW 18:12:27 42° W 18:16:16 10° SSW
Meteor 2-9 Rocket 4.1 18:07:39 10° N 18:13:08 61° ENE 18:18:27 10° SSE
Cosmos 1544 Rocket 3.6 18:09:36 10° N 18:13:59 81° W 18:18:18 10° S
Cosmos 1484 Rocket 4.4 18:10:55 10° SSW 18:14:40 39° W 18:18:28 10° NNW
YAOGAN 1 2.5 18:12:38 10° SSE 18:16:57 89° W 18:21:19 10° NNW
ISS -3.7 18:15:59 10° NW 18:19:13 55° NNE 18:19:54 44° E
ERS-2 2.1 18:16:09 10° SSE 18:19:44 56° ENE 18:23:21 10° N
Cosmos 372 Rocket 4.1 18:14:57 10° S 18:20:01 53° ESE 18:23:18 21° NE
Abrixas rocket 3.3 18:17:35 10° W 18:20:34 32° NNW 18:21:25 28° NNE
BREEZE-M DEB (TANK) 4.2 18:18:53 10° NW 18:21:43 38° NNE 18:23:32 28° ENE
Cosmos 1980 Rocket 3.6 18:17:59 10° SE 18:20:55 18° ESE 18:20:55 18° ESE
CZ-4 R/B 2.3 18:19:35 10° S 18:23:18 47° W 18:27:07 10° NNW
Cosmos 2297 Rocket 2.1 18:23:43 10° NNW 18:29:22 66° ENE 18:34:59 10° SSE
USA 116 4.5 18:26:50 10° N 18:29:55 39° WNW 18:32:50 10° SW
COSMO-SKYMED 1 2.5 18:27:10 11° NNE 18:31:19 87° W 18:35:38 10° SSW
NOSS 3-2 (A) 4.1 18:25:20 10° NNW 18:32:41 55° NE 18:40:02 13° SE
Cosmos 1666 4.3 18:34:29 10° NNW 18:37:57 36° W 18:41:23 10° SSW
NOSS 3-2 (C) 4.2 18:31:03 10° NNW 18:38:15 47° NE 18:42:30 26° ESE
Meteor 2-4 Rocket 3.7 18:35:05 10° SSW 18:40:34 76° W 18:45:58 10° N
Okean 2 4.3 18:36:52 10° SSE 18:39:29 32° SE 18:39:29 32° SE
PSLV R/B 3.5 18:39:16 10° WSW 18:42:02 56° SSW 18:42:02 56° SSW
ATLAS 2AS CENTAUR R/B 3.6 18:36:57 10° SW 18:44:34 55° NW 18:51:14 16° NNE
SJ 16-02 1.3 18:41:55 10° SSW 18:46:17 83° WNW 18:48:01 37° NNE
DMSP B5D1-3 4.4 18:43:42 22° NNE 18:47:03 77° ESE 18:52:09 10° S
Meteor 1-15 Rocket 4.2 18:44:10 10° N 18:50:07 74° E 18:56:01 10° SSE
Cosmos 1656 3.5 18:45:04 10° SSW 18:50:40 88° ESE 18:53:14 33° NNE
SPOT 3 Rocket 3.6 18:45:58 10° S 18:51:09 79° WSW 18:56:21 10° NNW
ATLAS 3B R/B 2.7 18:46:00 10° NW 18:52:38 75° WSW 18:59:06 10° SSE
Cosmos 158 Rocket 4.4 18:51:37 10° NNW 18:56:38 58° WSW 19:01:29 10° S
Meteor 2-11 Rocket 4.3 18:50:53 10° S 18:56:59 70° E 19:00:57 23° NNE
Cosmos 1241 Rocket 4.4 18:51:16 10° SSW 18:57:33 62° ESE 18:59:02 49° ENE
Hubble Space Telescope 3.2 18:56:01 10° SW 18:58:03 13° S 18:59:11 12° S
Cosmos 2369 3.9 18:52:45 10° SSW 18:58:24 71° WNW 19:01:30 28° NNE
Cosmos 2278 3.8 18:54:33 10° SSW 19:00:12 72° WNW 19:03:06 30° NNE
Nadezhda 2 Rocket 4.4 18:55:11 10° N 19:01:31 79° E 19:07:54 10° S
NOSS 3-4 (A) 3.4 18:59:26 10° SSW 19:05:33 65° ESE 19:06:30 57° ENE
NOSS 3-4 (C) 3.4 18:59:32 10° SSW 19:05:40 64° ESE 19:06:32 57° E
Thor Agena Rocket 4.0 19:06:52 45° SSE 19:06:52 45° SSE 19:10:50 10° S
Gbstr 26 Del rocket 4.2 19:00:52 10° SW 19:08:51 77° SE 19:10:43 53° ENE
Cosmos 1025 Rocket 3.6 19:10:42 10° SSW 19:14:01 51° SSW 19:14:01 51° SSW
Cosmos 1697 Rocket 2.8 19:19:58 10° SSW 19:25:37 73° WNW 19:26:11 67° NNW
FengYun 1-2 T 4.3 19:20:21 10° S 19:25:57 79° WSW 19:31:38 10° NNW
CENTAUR R/B 3.5 19:28:35 10° NNW 19:34:48 45° NNE 19:34:48 45° NNE
ALOS 4.5 19:35:37 10° SSW 19:39:22 24° W 19:43:10 10° NW
Atlas Centaur 2 4.1 19:40:22 10° SW 19:41:46 13° SSW 19:41:46 13° SSW
Cosmos 2227 Rocket 4.3 19:41:23 10° NW 19:45:49 24° WSW 19:50:13 10° SSW
DELTA 2 R/B (1) 4.4 19:43:17 10° W 19:47:20 48° W 19:47:20 48° W
Cosmos 1980 Rocket 3.6 19:59:39 10° SW 20:02:45 33° SW 20:02:45 33° SW
